Regional Weather Roundup
Issued by NWS Lake Charles, LA

Home | Current Version | Previous Version | Text Only | Print | Product List | Glossary On
Versions: 1 2 3 4 5 6 7 8 9 10 11 12 13 14 15 16 17 18 19 20 21 22 23 24 25 26 27 28 29 30 31 32 33 34 35 36 37 38 39 40 41 42 43 44 45 46 47 48 49 50
000
ASUS44 KLCH 080510
RWRLCH
RWRLCH
REGIONAL WEATHER ROUNDUP
NATIONAL WEATHER SERVICE LAKE CHARLES LA
1200 AM CDT WED JUL 08 2015

Note: "fair" indicates few or no clouds below 12,000 feet with no
significant weather and/or obstructions to visibility.


ACROSS SOUTHEAST TEXAS

CITY           SKY/WX    TMP DP  RH WIND       PRES   REMARKS
BEAUMONT       CLEAR     81  78  91 S8        30.06R
BEAUMONT CITY    N/A     78  75  91 SE3       30.07R
ORANGE         CLEAR     82  81  94 S3        30.08S
JASPER         PTCLDY    80  76  89 CALM      30.09S
$$

ACROSS CENTRAL LOUISIANA

CITY           SKY/WX    TMP DP  RH WIND       PRES   REMARKS
LEESVILLE      CLEAR     78  75  88 S9        30.08R
FULLERTON        N/A     80  74  81 CALM      30.07R
ALEXANDRIA INT CLEAR     77  74  90 S5        30.07R
ESLER FIELD    CLEAR     77  74  90 S3        30.09S
DERIDDER       MOCLDY    78  75  89 SE3       30.11R
OAKDALE        CLEAR     76  74  95 CALM      30.10R
OPELOUSAS        N/A     77  74  92 SE5       30.10S
$$

ACROSS SOUTHWEST AND SOUTH CENTRAL LOUISIANA

CITY           SKY/WX    TMP DP  RH WIND       PRES   REMARKS
SULPHUR        CLEAR     82  77  83 S6        30.09R
LAKE CHARLES   CLEAR     80  77  90 S3        30.08R
CHENNAULT INT  CLEAR     78  77  95 SE6       30.09R
CAMERON PHI    PTCLDY    84  77  79 S14       30.10S
DEQUINCY         N/A     78  78 100 CALM      30.09R
JENNINGS         N/A     79  77  92 SE5       30.09S
LAFAYETTE      MOCLDY    80  75  84 CALM      30.11R
NEW IBERIA     NOT AVBL
ABBEVILLE        N/A     78  76  94 CALM      30.11R
PATTERSON      CLEAR     79  75  89 CALM      30.13R
SALT POINT       N/A     84  77  79 CALM      30.10R
$$

SELECTED SITES ACROSS THE REGION

CITY           SKY/WX    TMP DP  RH WIND       PRES   REMARKS
HOUSTON BUSH   MOCLDY    82  77  84 S7        30.04S
HOUSTON HOBBY  MOCLDY    81  77  88 S6        30.04R
GALVESTON      PTCLDY    84  79  85 S16       30.06R
COLLEGE STAT   CLEAR     80  74  81 S10       30.02R
CONROE         MOCLDY    78  74  87 SE5       30.04S
HUNTSVILLE     CLEAR     80  74  81 S6        30.04R
LUFKIN         PTCLDY    81  74  79 S6        30.05R
SHREVEPORT     PTCLDY    81  74  79 S10       30.04R
MONROE         CLEAR     78  74  87 S7        30.07S
NATCHEZ MS     NOT AVBL
BATON ROUGE    PTCLDY    76  72  87 E3        30.12R
N.O. INTL ARPT PTCLDY    82  74  76 SE9       30.11F
SLIDELL        PTCLDY    80  76  87 CALM      30.12S
$$

MARINE REPORTS

STATION/POSITION TIME  TEMP    WIND        PRES    VSBY  WAVE
                       AIR SEA DIR/SP/G                  HT/PER
                 (UTC) (F)     (DEG/KT/KT) (MB)    (MI)  (FT/S)
BUOY 30 S HIGH I 0450   85 84  160/ 16/ 17 1017.2R         4/ 6
SEA RIM ST PARK  0400   84     170/ 12/ 15 1018.4R
PORT ARTHUR      0400      85  190/  4/  7 1018.1R
SABINE PASS N    0400   84 85  180/ 10/ 15 1018.1R
TEXAS POINT      NOT AVBL
CALCASIEU PASS   0400   85 86  190/ 16/ 19   N/A
LK CHARLES BEACH 0400   82 85                N/A
MARSH ISLAND     0400   86     180/  8/ 13   N/A           0
FRESH WATER LOCK 0400   85 88  170/ 10/ 13 1019.0R
AMERADA PASS     NOT AVBL
$$



USA.gov is the U.S. government's official web portal to all federal, state and local government web resources and services.